Content
SEND FEEDBACK

Daily
Averages
Monthly
Summary
Mexico

ISLA MUJERES, QUINTANA ROO


Home > North America > Mexico > Quintana Roo
Elevation: 16 feet     Latitude: 21 14N     Longitude: 086 44W

WEATHER
 
SELECT A DAY
Number of Records: 167,884;   Date Range: 1/1/95 - 12/23/14
 
SHARE

PRINT THIS DATA

[ ← Previous Day ]
WEATHER ALMANAC - JANUARY 3, 2013
[ Next Day → ]
[ °C ]   °F
Weather ElementAverageHighLow
Temperature75 °F82.4 °F (10:50 am)64.4 °F (5:45 am)
Dewpoint69.6 °F71.6 °F (8:41 am)64.4 °F (5:45 am)
Humidity84.8 %100 % (2:43 am)66 % (10:50 am)
Barometer30.03 in30.09 in (9:48 pm)29.99 in (2:43 am)
Wind Speed5.1 mph11.5 mph (12:44 pm)
Weather ElementAverage
Visibility7 mi
Wind DirectionSSE (146.5 °)

Weather ElementTotal
Precipitation---
Cooling Degree Days8.4 (Base 65)
Growing Degree Days23.4 (Base 50)
Averaged from 23 records on January 3, 2013
WEATHER CONDITIONS BREAKOUT
WIND DIRECTION BREAKOUT
WEATHER BY HOUR - JANUARY 3, 2013
[ °C ]   °F
Local TimeTemperatureDewpointHumidityBarometerVisibilityWind DirectionWind SpeedGust SpeedPrecipitationEventsConditions
1:44 AM69.8 °F68.0 °F94 %30.00 in7.0 miWNW (300°)3.5 mphPartly Cloudy
2:43 AM68.0 °F68.0 °F100 %29.99 in7.0 miNNW (330°)2.3 mphPartly Cloudy
3:43 AM66.2 °F66.2 °F100 %29.99 in7.0 miESE (120°)3.5 mphPartly Cloudy
4:40 AM66.2 °F66.2 °F100 %30.00 in7.0 miNW (310°)2.3 mphPartly Cloudy
5:45 AM64.4 °F64.4 °F100 %30.01 in7.0 miNorth (350°)2.3 mphPartly Cloudy
6:42 AM64.4 °F64.4 °F100 %30.03 in7.0 miNorth (360°)2.3 mphScattered Clouds
7:56 AM69.8 °F68.0 °F94 %30.04 in7.0 miCalmPartly Cloudy
8:41 AM77.0 °F71.6 °F83 %30.07 in7.0 miCalmPartly Cloudy
9:41 AM80.6 °F71.6 °F74 %30.07 in7.0 miSE (130°)8.1 mphScattered Clouds
10:50 AM82.4 °F69.8 °F66 %30.05 in7.0 miESE (120°)10.4 mphScattered Clouds
11:46 AM82.4 °F69.8 °F66 %30.03 in7.0 miSE (140°)5.8 mphPartly Cloudy
12:44 PM82.4 °F69.8 °F66 %30.00 in7.0 miSE (130°)11.5 mphClear
1:44 PM82.4 °F71.6 °F70 %29.99 in7.0 miESE (120°)9.2 mphClear
2:44 PM82.4 °F69.8 °F66 %29.99 in7.0 miSSE (160°)8.1 mphPartly Cloudy
3:43 PM80.6 °F69.8 °F70 %30.00 in7.0 miSE (140°)9.2 mphScattered Clouds
4:45 PM78.8 °F71.6 °F78 %30.01 in7.0 miESE (110°)5.8 mphScattered Clouds
5:41 PM75.2 °F71.6 °F89 %30.03 in7.0 miEast (100°)4.6 mphPartly Cloudy
6:44 PM75.2 °F71.6 °F89 %30.05 in7.0 miEast (100°)3.5 mphPartly Cloudy
7:41 PM75.2 °F71.6 °F89 %30.07 in7.0 miENE (70°)3.5 mphClear
8:40 PM75.2 °F71.6 °F89 %30.07 in7.0 miENE (70°)3.5 mphClear
9:48 PM75.2 °F71.6 °F89 %30.09 in7.0 miEast (80°)5.8 mphClear
10:47 PM75.2 °F71.6 °F89 %30.09 in7.0 miENE (60°)5.8 mphClear
11:46 PM75.2 °F71.6 °F89 %30.05 in7.0 miENE (70°)5.8 mphClear
Hourly data recorded from MMUN, located miles away from Isla Mujeres, Quintana Roo







STORIES FROM OUR PARTNERS